FENGYUN 1C DEB

Satellite information

Favourite Embed

Satellite Type and Status

DEBRISIN ORBIT

Key statistics

Satellite FENGYUN 1C DEB at a glance.

Uptime

9554

Days in orbit

Revolutions

≈ 14.2

Per day

Orbit

SSO

Sun Synchronous Orbit

Inclination

99.1

Latest

Satellite identification and parameters

Extended collection of information and parameters for FENGYUN 1C DEB.

Object identification

Identified? True

Debris? True

Object name: FENGYUN 1C DEB

International designator: 1999-025DJL

Object number (NORAD): 33747

Object ID (CCSDS): 33747

Country: PEOPLES REPUBLIC OF CHINA (PRC)

Current information (Y/N): Y

RCS size: SMALL

Orbital parameters

Period: 101.715 minutes

Inclination: 99.0975 deg

SMA: 7217.995 km

Apoapsis: 902.353 km

Periapsis: 777.367 km

RAAN: 272.295 deg

Eccentricy: 0.0086579

Argument of periapsis: 327.7304 deg

Mean anomaly: 31.8589 deg

Mean motion: 14.15721679 rev/day

Mean motion (dot): 0.00001955 rev/day2

B* drag term: 0.00098398 1/REarth

Two-line elements (TLE)

Creation date: June 30, 2025, 5:29 p.m.

Reference frame: TEME

Reference center: EARTH

Epoch: June 30, 2025, 5:03 a.m. UTC

TLE line 0: 0 FENGYUN 1C DEB

TLE line 1: 1 33747U 99025DJL 25181.21072570 .00001955 00000-0 98398-3 0 9990

TLE line 2: 2 33747 99.0975 272.2950 0086579 327.7304 31.8589 14.15721679877899

Live tracking on map

Real-time ground track for satellite FENGYUN 1C DEB.

In-orbit conjunctions

A list of the most updated potential collisions computed for object FENGYUN 1C DEB.

Target Orbit TCA Probability of collision Miss distance Type
COSMOS 2150 LEO 2025-02-01 12:11:22 0.0002138876 459.0 (m) PAYLOAD

Associated space launch

Chinese polar orbiting meteorological satellite

FENGYUN 1C DEB was lifted into orbit during the mission ‘Long March 4B | Feng Yun 1C’, on board a Long March 4B space rocket.

The launch took place on May 10, 1999, 1:33 a.m. from Launch Complex 7.

For more information about the launch, click the button.

Launch to space Long March 4B | Feng Yun 1C
Long March 4B | Feng Yun 1C

Agency: N/A

Status: Launch Successful

Launch date: May 10, 1999, 1:33 a.m. UTC

Rocket: Long March 4B

Launch pad: Launch Complex 7

Location: Taiyuan Satellite Launch Center, People's Republic of China

...

Latest news about this satellite

There are no fresh news available about this satellite. Check back as we update our databases every day.


Newsletter sign-up

Weekly statistics, charts and insights to help you stay on top of the space industry.